Location: Newark
(46.7000°N, 60.6000°W)
Time: 16:00:37
(UTC+00:00)

Vanguard 3 - Visible Passes

Search period start: 21 October 2020 00:00
Search period end: 31 October 2020 00:00
Orbit: 508 x 3263 km, 33.3° (Epoch: 20 October)

Date Brightness Start Highest point End Pass type
(mag) Time Alt. Az. Time Alt. Az. Time Alt. Az.
21 Oct 11.6 08:55:11 10° S 09:07:10 20° SE 09:18:44 10° E visible
22 Oct 11.7 07:47:22 10° SE 07:52:06 11° SE 07:56:53 10° ESE visible
22 Oct 11.4 09:49:18 10° SSW 10:05:00 32° SSE 10:19:26 10° E visible
23 Oct 11.4 08:36:33 10° S 08:49:25 23° SE 09:02:20 10° E visible
24 Oct 11.6 07:26:56 10° SSE 07:34:23 14° SE 07:42:08 10° ESE visible
24 Oct 11.3 09:31:17 10° SSW 09:47:14 35° SSE 10:02:41 10° E visible
25 Oct 11.3 08:18:21 10° S 08:31:37 26° SE 08:45:37 10° E visible
26 Oct 11.3 07:07:50 10° SSE 07:16:37 16° SE 07:26:08 10° ESE visible
26 Oct 11.1 09:13:31 10° SSW 09:29:25 37° SSE 09:45:45 10° E visible
27 Oct 11.1 08:00:29 10° S 08:13:48 28° SE 08:28:38 10° E visible
28 Oct 11.2 06:49:27 10° SSE 06:58:52 18° SE 07:09:32 10° E visible
28 Oct 11.0 08:56:00 10° SSW 09:11:35 40° SSE 09:28:37 10° E visible
29 Oct 11.0 07:42:54 10° SSW 07:56:00 30° SE 08:11:24 10° E visible
29 Oct 10.8 09:52:55 10° SW 10:09:58 49° SSE 10:27:40 10° E visible
30 Oct 11.0 06:32:09 11° S 06:41:09 20° SE 06:52:33 10° E visible
30 Oct 10.8 08:38:42 10° SW 08:53:47 42° SSE 09:11:18 10° E visible
